This is the latest recevied weather packets stored in our database for station/object K0QJ. If no packets are shown the sender has not sent any weather packets the latest 10 day(s).
| Time | Temp. | Humidity | Pressure | Rain* | Wind** | Luminosity | Snow |
|---|---|---|---|---|---|---|---|
| 1777832782 | 25.56° C | 41% | 1010.2 hPa | 0 mm | - | 756 W/m² | - |
| 1777832481 | 25.56° C | 41% | 1010.3 hPa | 0 mm | - | 741 W/m² | - |
| 1777832177 | 26.11° C | 41% | 1010.4 hPa | 0 mm | - | 753 W/m² | - |
| 1777831874 | 25.56° C | 43% | 1010.1 hPa | 0 mm | - | 740 W/m² | - |
| 1777831571 | 25° C | 42% | 1010.3 hPa | 0 mm | - | 758 W/m² | - |
| 1777831269 | 25° C | 43% | 1010.5 hPa | 0 mm | - | 791 W/m² | - |
| 1777830965 | 25° C | 42% | 1010.4 hPa | 0 mm | - | 804 W/m² | - |
| 1777830663 | 25° C | 42% | 1010.7 hPa | 0 mm | - | 789 W/m² | - |
| 1777830359 | 25° C | 43% | 1010.9 hPa | 0 mm | - | 756 W/m² | - |
| 1777830056 | 24.44° C | 44% | 1010.9 hPa | 0 mm | - | 769 W/m² | - |
| 1777829751 | 24.44° C | 44% | 1011 hPa | 0 mm | - | 790 W/m² | - |
| 1777829448 | 24.44° C | 44% | 1011.2 hPa | 0 mm | - | 842 W/m² | - |
| 1777829145 | 24.44° C | 44% | 1011 hPa | 0 mm | - | 822 W/m² | - |
| 1777828842 | 23.89° C | 44% | 1011.1 hPa | 0 mm | - | 825 W/m² | - |
| 1777828538 | 23.89° C | 46% | 1011.1 hPa | 0 mm | - | 815 W/m² | - |
| 1777828236 | 22.78° C | 46% | 1011.5 hPa | 0 mm | - | 815 W/m² | - |
| 1777827932 | 22.78° C | 45% | 1011.5 hPa | 0 mm | - | 766 W/m² | - |
| 1777827630 | 22.78° C | 45% | 1011.3 hPa | 0 mm | - | 810 W/m² | - |
| 1777827327 | 22.78° C | 45% | 1011.5 hPa | 0 mm | - | 798 W/m² | - |
| 1777827023 | 22.78° C | 47% | 1011.8 hPa | 0 mm | - | 786 W/m² | - |
| 1777826720 | 22.22° C | 46% | 1011.9 hPa | 0 mm | - | 809 W/m² | - |
| 1777826417 | 22.22° C | 45% | 1012.1 hPa | 0 mm | - | 822 W/m² | - |
| 1777826114 | 22.22° C | 46% | 1011.7 hPa | 0 mm | - | 823 W/m² | - |
| 1777825811 | 22.22° C | 46% | 1012.1 hPa | 0 mm | - | 813 W/m² | - |
| 1777825508 | 21.67° C | 47% | 1012.2 hPa | 0 mm | - | 804 W/m² | - |
* Rain latest hour (hover to see other rain measurements)
** Current wind speed in m/s (hover to see current wind gust speed)